Time,TemperatureF,DewpointF,PressureIn,WindDirection,WindDirectionDegrees,WindSpeedMPH,WindSpeedGustMPH,Humidity,HourlyPrecipIn,Conditions,Clouds,dailyrainin,SoftwareType,DateUTC
2013-07-09 00:02:00,76.3,70.3,30.16,West,270,0.0,1.0,82,0.00,,,0.00,meteohub,2013-07-09 05:02:00,
2013-07-09 00:07:00,76.6,70.7,30.16,West,270,0.0,1.0,82,0.00,,,0.00,meteohub,2013-07-09 05:07:00,
2013-07-09 00:12:00,76.6,70.7,30.16,West,270,0.0,1.0,82,0.00,,,0.00,meteohub,2013-07-09 05:12:00,
2013-07-09 00:17:00,76.3,70.3,30.16,West,270,0.0,1.0,82,0.00,,,0.00,meteohub,2013-07-09 05:17:00,
2013-07-09 00:22:00,76.3,70.3,30.16,West,270,0.0,0.0,82,0.00,,,0.00,meteohub,2013-07-09 05:22:00,
2013-07-09 00:27:00,76.3,70.3,30.16,West,270,0.0,0.0,82,0.00,,,0.00,meteohub,2013-07-09 05:27:00,
2013-07-09 00:32:00,76.3,70.3,30.16,West,270,0.0,0.0,82,0.00,,,0.00,meteohub,2013-07-09 05:32:00,
2013-07-09 00:37:00,76.3,70.3,30.15,West,270,0.0,0.0,82,0.00,,,0.00,meteohub,2013-07-09 05:37:00,
2013-07-09 00:42:00,76.3,70.3,30.15,West,270,0.0,0.0,82,0.00,,,0.00,meteohub,2013-07-09 05:42:00,
2013-07-09 00:47:00,76.3,70.3,30.15,North,0,0.0,0.0,82,0.00,,,0.00,meteohub,2013-07-09 05:47:00,
2013-07-09 00:52:00,76.3,70.3,30.15,SW,225,0.0,0.0,82,0.00,,,0.00,meteohub,2013-07-09 05:52:00,
2013-07-09 00:57:00,76.3,70.3,30.15,NW,315,0.0,0.0,82,0.00,,,0.00,meteohub,2013-07-09 05:57:00,
2013-07-09 01:02:00,76.3,70.3,30.15,NW,315,0.0,0.0,82,0.00,,,0.00,meteohub,2013-07-09 06:02:00,
2013-07-09 01:08:00,76.3,70.3,30.15,West,270,0.0,0.0,82,0.00,,,0.00,meteohub,2013-07-09 06:08:00,
2013-07-09 01:13:00,76.3,70.3,30.15,West,270,0.0,0.0,82,0.00,,,0.00,meteohub,2013-07-09 06:13:00,
2013-07-09 01:18:00,76.3,70.3,30.15,North,0,0.0,0.0,82,0.00,,,0.00,meteohub,2013-07-09 06:18:00,
2013-07-09 01:23:00,76.3,70.3,30.15,NW,315,0.0,1.0,82,0.00,,,0.00,meteohub,2013-07-09 06:23:00,
2013-07-09 01:28:00,76.1,70.5,30.15,NW,315,0.0,1.0,83,0.00,,,0.00,meteohub,2013-07-09 06:28:00,
2013-07-09 01:33:00,76.1,70.5,30.15,NW,315,1.0,1.0,83,0.00,,,0.00,meteohub,2013-07-09 06:33:00,
2013-07-09 01:38:00,76.1,70.5,30.15,West,270,2.0,2.0,83,0.00,,,0.00,meteohub,2013-07-09 06:38:00,
2013-07-09 01:43:00,76.1,70.5,30.14,North,0,0.0,2.0,83,0.00,,,0.00,meteohub,2013-07-09 06:43:00,
2013-07-09 01:48:00,76.1,70.5,30.14,North,0,1.0,2.0,83,0.00,,,0.00,meteohub,2013-07-09 06:48:00,
2013-07-09 01:53:00,76.3,70.7,30.14,NW,315,1.0,2.0,83,0.00,,,0.00,meteohub,2013-07-09 06:53:00,
2013-07-09 01:58:00,76.3,70.7,30.14,NW,315,1.0,2.0,83,0.00,,,0.00,meteohub,2013-07-09 06:58:00,
2013-07-09 02:03:00,76.3,70.7,30.14,West,270,0.0,2.0,83,0.00,,,0.00,meteohub,2013-07-09 07:03:00,
2013-07-09 02:08:00,76.1,70.5,30.14,North,0,2.0,2.0,83,0.00,,,0.00,meteohub,2013-07-09 07:08:00,
2013-07-09 02:13:00,76.1,70.5,30.14,SW,225,1.0,2.0,83,0.00,,,0.00,meteohub,2013-07-09 07:13:00,
2013-07-09 02:18:00,76.1,70.5,30.14,NW,315,2.0,3.0,83,0.00,,,0.00,meteohub,2013-07-09 07:18:00,
2013-07-09 02:23:00,76.1,70.9,30.13,North,0,2.0,3.0,84,0.00,,,0.00,meteohub,2013-07-09 07:23:00,
2013-07-09 02:28:00,76.1,70.9,30.13,North,0,2.0,3.0,84,0.00,,,0.00,meteohub,2013-07-09 07:28:00,
2013-07-09 02:33:00,76.1,70.5,30.13,NW,315,1.0,3.0,83,0.00,,,0.00,meteohub,2013-07-09 07:33:00,
2013-07-09 02:38:00,76.1,70.5,30.13,North,0,1.0,3.0,83,0.00,,,0.00,meteohub,2013-07-09 07:38:00,
2013-07-09 02:43:00,76.1,70.5,30.12,NW,315,2.0,2.0,83,0.00,,,0.00,meteohub,2013-07-09 07:43:00,
2013-07-09 02:48:00,76.1,70.5,30.12,North,0,4.0,4.0,83,0.00,,,0.00,meteohub,2013-07-09 07:48:00,
2013-07-09 02:54:00,76.1,70.5,30.12,NW,315,2.0,2.0,83,0.00,,,0.00,meteohub,2013-07-09 07:54:00,
2013-07-09 02:59:00,75.9,70.3,30.12,North,0,6.0,6.0,83,0.00,,,0.00,meteohub,2013-07-09 07:59:00,
2013-07-09 03:04:00,75.9,70.3,30.12,North,0,2.0,8.0,83,0.00,,,0.00,meteohub,2013-07-09 08:04:00,
2013-07-09 03:09:00,75.9,70.3,30.12,North,0,2.0,8.0,83,0.00,,,0.00,meteohub,2013-07-09 08:09:00,
2013-07-09 03:14:00,75.9,70.3,30.11,North,0,3.0,8.0,83,0.00,,,0.00,meteohub,2013-07-09 08:14:00,
2013-07-09 03:19:00,75.7,70.2,30.11,North,0,2.0,4.0,83,0.00,,,0.00,meteohub,2013-07-09 08:19:00,
2013-07-09 03:24:00,75.6,70.0,30.10,NW,315,1.0,4.0,83,0.00,,,0.00,meteohub,2013-07-09 08:24:00,
2013-07-09 03:29:00,75.4,69.8,30.10,West,270,2.0,4.0,83,0.00,,,0.00,meteohub,2013-07-09 08:29:00,
2013-07-09 03:34:00,75.2,70.0,30.10,North,0,2.0,4.0,84,0.00,,,0.00,meteohub,2013-07-09 08:34:00,
2013-07-09 03:39:00,75.2,70.0,30.10,North,0,1.0,4.0,84,0.00,,,0.00,meteohub,2013-07-09 08:39:00,
2013-07-09 03:44:00,75.0,70.2,30.10,NW,315,3.0,4.0,85,0.00,,,0.00,meteohub,2013-07-09 08:44:00,
2013-07-09 03:49:00,74.8,70.0,30.10,West,270,2.0,4.0,85,0.00,,,0.00,meteohub,2013-07-09 08:49:00,
2013-07-09 03:54:00,74.8,70.0,30.10,NE,45,0.0,4.0,85,0.00,,,0.00,meteohub,2013-07-09 08:54:00,
2013-07-09 03:59:00,74.7,70.2,30.10,North,0,0.0,3.0,86,0.00,,,0.00,meteohub,2013-07-09 08:59:00,
2013-07-09 04:04:00,74.7,70.2,30.10,North,0,1.0,2.0,86,0.00,,,0.00,meteohub,2013-07-09 09:04:00,
2013-07-09 04:09:00,74.7,70.2,30.09,NW,315,0.0,2.0,86,0.00,,,0.00,meteohub,2013-07-09 09:09:00,
2013-07-09 04:14:00,74.7,70.2,30.09,North,0,2.0,2.0,86,0.00,,,0.00,meteohub,2013-07-09 09:14:00,
2013-07-09 04:20:00,74.7,70.2,30.09,NW,315,2.0,2.0,86,0.00,,,0.00,meteohub,2013-07-09 09:20:00,
2013-07-09 04:25:00,74.8,70.3,30.09,NW,315,2.0,4.0,86,0.00,,,0.00,meteohub,2013-07-09 09:25:00,
2013-07-09 04:30:00,74.8,70.3,30.09,North,0,2.0,4.0,86,0.00,,,0.00,meteohub,2013-07-09 09:30:00,
2013-07-09 04:35:00,75.0,70.5,30.09,NW,315,3.0,4.0,86,0.00,,,0.00,meteohub,2013-07-09 09:35:00,
2013-07-09 04:40:00,75.2,70.3,30.09,North,0,6.0,6.0,85,0.00,,,0.00,meteohub,2013-07-09 09:40:00,
2013-07-09 04:45:00,75.4,70.5,30.09,NNW,338,4.0,4.0,85,0.00,,,0.00,meteohub,2013-07-09 09:45:00,
2013-07-09 04:50:00,75.4,70.5,30.09,North,0,4.0,6.0,85,0.00,,,0.00,meteohub,2013-07-09 09:50:00,
2013-07-09 04:55:00,75.4,70.2,30.09,North,0,2.0,7.0,84,0.00,,,0.00,meteohub,2013-07-09 09:55:00,
2013-07-09 05:00:00,75.4,70.2,30.09,North,0,2.0,7.0,84,0.00,,,0.00,meteohub,2013-07-09 10:00:00,
2013-07-09 05:05:00,75.4,70.2,30.10,North,0,2.0,7.0,84,0.00,,,0.00,meteohub,2013-07-09 10:05:00,
2013-07-09 05:10:00,75.6,70.7,30.09,North,0,2.0,4.0,85,0.00,,,0.00,meteohub,2013-07-09 10:10:00,
2013-07-09 05:15:00,75.6,70.3,30.09,North,0,4.0,5.0,84,0.00,,,0.00,meteohub,2013-07-09 10:15:00,
2013-07-09 05:20:00,75.6,70.3,30.08,North,0,5.0,7.0,84,0.00,,,0.00,meteohub,2013-07-09 10:20:00,
2013-07-09 05:25:00,75.7,70.5,30.09,North,0,3.0,7.0,84,0.00,,,0.00,meteohub,2013-07-09 10:25:00,
2013-07-09 05:30:00,75.7,70.5,30.08,North,0,5.0,7.0,84,0.00,,,0.00,meteohub,2013-07-09 10:30:00,
2013-07-09 05:35:00,75.9,70.7,30.08,North,0,8.0,8.0,84,0.00,,,0.00,meteohub,2013-07-09 10:35:00,
2013-07-09 05:40:00,75.9,70.7,30.07,North,0,8.0,8.0,84,0.00,,,0.00,meteohub,2013-07-09 10:40:00,
2013-07-09 05:45:00,76.1,70.9,30.07,North,0,8.0,10.0,84,0.00,,,0.00,meteohub,2013-07-09 10:45:00,
2013-07-09 05:50:00,76.1,70.5,30.06,West,270,4.0,10.0,83,0.00,,,0.00,meteohub,2013-07-09 10:50:00,
2013-07-09 05:55:00,76.1,70.9,30.06,NW,315,6.0,8.0,84,0.00,,,0.00,meteohub,2013-07-09 10:55:00,
2013-07-09 06:00:00,76.1,70.9,30.06,North,0,4.0,8.0,84,0.00,,,0.00,meteohub,2013-07-09 11:00:00,
2013-07-09 06:05:00,76.3,71.1,30.06,North,0,5.0,8.0,84,0.00,,,0.00,meteohub,2013-07-09 11:05:00,
2013-07-09 06:10:00,76.3,70.7,30.05,West,270,4.0,14.0,83,0.00,,,0.00,meteohub,2013-07-09 11:10:00,
2013-07-09 06:15:00,76.3,70.7,30.05,NW,315,2.0,14.0,83,0.00,,,0.00,meteohub,2013-07-09 11:15:00,
2013-07-09 06:20:00,76.3,70.7,30.05,North,0,4.0,14.0,83,0.00,,,0.00,meteohub,2013-07-09 11:20:00,
2013-07-09 06:25:00,76.3,70.7,30.05,North,0,3.0,7.0,83,0.00,,,0.00,meteohub,2013-07-09 11:25:00,
2013-07-09 06:30:00,76.3,71.1,30.05,North,0,4.0,9.0,84,0.00,,,0.00,meteohub,2013-07-09 11:30:00,
2013-07-09 06:36:00,76.3,71.1,30.05,SW,225,4.0,9.0,84,0.00,,,0.00,meteohub,2013-07-09 11:36:00,
2013-07-09 06:41:00,76.3,71.1,30.04,North,0,8.0,9.0,84,0.00,,,0.00,meteohub,2013-07-09 11:41:00,
2013-07-09 06:46:00,76.3,71.1,30.04,North,0,8.0,9.0,84,0.00,,,0.00,meteohub,2013-07-09 11:46:00,
2013-07-09 06:51:00,76.3,71.1,30.03,North,0,4.0,9.0,84,0.00,,,0.00,meteohub,2013-07-09 11:51:00,
2013-07-09 06:56:00,76.3,71.1,30.04,East,90,6.0,8.0,84,0.00,,,0.00,meteohub,2013-07-09 11:56:00,
2013-07-09 07:01:00,76.3,71.1,30.03,North,0,3.0,8.0,84,0.00,,,0.00,meteohub,2013-07-09 12:01:00,
2013-07-09 07:06:00,76.3,71.1,30.03,North,0,3.0,10.0,84,0.00,,,0.00,meteohub,2013-07-09 12:06:00,
2013-07-09 07:11:00,76.3,71.1,30.03,North,0,5.0,10.0,84,0.00,,,0.00,meteohub,2013-07-09 12:11:00,
2013-07-09 07:16:00,76.3,71.1,30.02,North,0,5.0,10.0,84,0.00,,,0.00,meteohub,2013-07-09 12:16:00,
2013-07-09 07:21:00,76.3,71.4,30.02,North,0,4.0,8.0,85,0.00,,,0.00,meteohub,2013-07-09 12:21:00,
2013-07-09 07:26:00,76.3,71.4,30.03,North,0,7.0,7.0,85,0.00,,,0.00,meteohub,2013-07-09 12:26:00,
2013-07-09 07:31:00,76.3,71.4,30.03,NW,315,4.0,7.0,85,0.00,,,0.00,meteohub,2013-07-09 12:31:00,
2013-07-09 07:36:00,76.3,71.4,30.03,NE,45,4.0,7.0,85,0.00,,,0.00,meteohub,2013-07-09 12:36:00,
2013-07-09 07:41:00,76.3,71.4,30.04,NE,45,2.0,7.0,85,0.00,,,0.00,meteohub,2013-07-09 12:41:00,
2013-07-09 07:46:00,76.3,71.8,30.03,NE,45,8.0,8.0,86,0.00,,,0.00,meteohub,2013-07-09 12:46:00,
2013-07-09 07:51:00,76.3,71.8,30.03,North,0,4.0,8.0,86,0.00,,,0.00,meteohub,2013-07-09 12:51:00,
2013-07-09 07:56:00,76.3,71.8,30.02,NE,45,4.0,8.0,86,0.00,,,0.00,meteohub,2013-07-09 12:56:00,
2013-07-09 08:01:00,76.3,71.8,30.02,East,90,4.0,8.0,86,0.00,,,0.00,meteohub,2013-07-09 13:01:00,
2013-07-09 08:06:00,76.3,71.8,30.04,East,90,8.0,8.0,86,0.00,,,0.00,meteohub,2013-07-09 13:06:00,
2013-07-09 08:11:00,75.9,72.1,30.05,East,90,11.0,11.0,88,0.02,,,0.02,meteohub,2013-07-09 13:11:00,
2013-07-09 08:16:00,74.1,70.7,30.04,NE,45,19.0,19.0,89,0.25,,,0.25,meteohub,2013-07-09 13:16:00,
2013-07-09 08:21:00,72.1,68.7,30.04,East,90,4.0,19.0,89,0.32,,,0.31,meteohub,2013-07-09 13:21:00,
2013-07-09 08:26:00,71.2,68.2,30.03,North,0,2.0,19.0,90,0.33,,,0.33,meteohub,2013-07-09 13:26:00,
2013-07-09 08:31:00,70.7,68.0,30.04,NE,45,3.0,19.0,91,0.38,,,0.38,meteohub,2013-07-09 13:31:00,
2013-07-09 08:36:00,70.3,67.8,30.04,NW,315,4.0,15.0,92,0.38,,,0.38,meteohub,2013-07-09 13:36:00,
2013-07-09 08:41:00,70.3,68.2,30.03,North,0,0.0,9.0,93,0.39,,,0.39,meteohub,2013-07-09 13:41:00,
2013-07-09 08:47:00,70.2,68.0,30.03,NW,315,1.0,4.0,93,0.40,,,0.40,meteohub,2013-07-09 13:47:00,
2013-07-09 08:52:00,70.2,68.0,30.01,West,270,0.0,4.0,93,0.40,,,0.40,meteohub,2013-07-09 13:52:00,
2013-07-09 08:57:00,70.0,68.2,29.99,NW,315,2.0,2.0,94,0.41,,,0.41,meteohub,2013-07-09 13:57:00,
2013-07-09 09:02:00,70.0,68.2,29.96,SW,225,2.0,2.0,94,0.41,,,0.41,meteohub,2013-07-09 14:02:00,
2013-07-09 09:07:00,69.8,68.4,29.96,SE,135,1.0,2.0,95,0.41,,,0.41,meteohub,2013-07-09 14:07:00,
2013-07-09 09:12:00,69.8,68.4,29.96,NW,315,1.0,4.0,95,0.30,,,0.43,meteohub,2013-07-09 14:12:00,
2013-07-09 09:17:00,69.8,68.5,29.97,North,0,1.0,4.0,96,0.15,,,0.43,meteohub,2013-07-09 14:17:00,
2013-07-09 09:22:00,69.8,68.5,29.96,North,0,5.0,5.0,96,0.11,,,0.43,meteohub,2013-07-09 14:22:00,
2013-07-09 09:27:00,70.0,68.7,29.96,West,270,6.0,6.0,96,0.07,,,0.43,meteohub,2013-07-09 14:27:00,
2013-07-09 09:32:00,70.3,69.1,29.97,North,0,4.0,10.0,96,0.05,,,0.43,meteohub,2013-07-09 14:32:00,
2013-07-09 09:37:00,70.5,69.3,29.98,WNW,293,6.0,10.0,96,0.04,,,0.43,meteohub,2013-07-09 14:37:00,
2013-07-09 09:42:00,70.5,69.3,29.99,NE,45,5.0,10.0,96,0.04,,,0.43,meteohub,2013-07-09 14:42:00,
2013-07-09 09:47:00,70.9,70.0,30.00,NE,45,4.0,8.0,97,0.02,,,0.43,meteohub,2013-07-09 14:47:00,
2013-07-09 09:52:00,71.1,70.2,30.02,SE,135,3.0,8.0,97,0.02,,,0.43,meteohub,2013-07-09 14:52:00,
2013-07-09 09:57:00,71.1,70.2,30.04,NE,45,4.0,6.0,97,0.01,,,0.43,meteohub,2013-07-09 14:57:00,
2013-07-09 10:02:00,71.1,70.2,30.04,East,90,4.0,6.0,97,0.01,,,0.43,meteohub,2013-07-09 15:02:00,
2013-07-09 10:07:00,70.9,70.0,30.04,NE,45,2.0,6.0,97,0.01,,,0.43,meteohub,2013-07-09 15:07:00,
2013-07-09 10:12:00,70.9,70.0,30.04,ENE,68,2.0,6.0,97,0.00,,,0.43,meteohub,2013-07-09 15:12:00,
2013-07-09 10:17:00,71.2,70.3,30.04,NE,45,2.0,6.0,97,0.00,,,0.43,meteohub,2013-07-09 15:17:00,
2013-07-09 10:22:00,71.6,70.3,30.04,North,0,2.0,2.0,96,0.00,,,0.43,meteohub,2013-07-09 15:22:00,
2013-07-09 10:27:00,72.0,70.7,30.04,North,0,2.0,3.0,96,0.00,,,0.43,meteohub,2013-07-09 15:27:00,
2013-07-09 10:32:00,72.7,71.4,30.04,SE,135,2.0,3.0,96,0.00,,,0.43,meteohub,2013-07-09 15:32:00,
2013-07-09 10:37:00,73.8,72.9,30.04,North,0,2.0,4.0,97,0.00,,,0.43,meteohub,2013-07-09 15:37:00,
2013-07-09 10:42:00,74.5,73.2,30.04,East,90,4.0,4.0,96,0.00,,,0.43,meteohub,2013-07-09 15:42:00,
2013-07-09 10:47:00,74.3,72.9,30.04,East,90,5.0,5.0,95,0.00,,,0.43,meteohub,2013-07-09 15:47:00,
2013-07-09 10:52:00,74.7,72.9,30.04,NE,45,5.0,8.0,94,0.00,,,0.43,meteohub,2013-07-09 15:52:00,
2013-07-09 10:57:00,75.0,72.9,30.04,East,90,7.0,8.0,93,0.00,,,0.43,meteohub,2013-07-09 15:57:00,
2013-07-09 11:02:00,75.4,72.5,30.04,East,90,2.0,8.0,91,0.00,,,0.43,meteohub,2013-07-09 16:02:00,
2013-07-09 11:07:00,75.7,72.3,30.04,NE,45,8.0,8.0,89,0.00,,,0.43,meteohub,2013-07-09 16:07:00,
2013-07-09 11:12:00,75.9,72.1,30.04,SE,135,6.0,8.0,88,0.00,,,0.43,meteohub,2013-07-09 16:12:00,
2013-07-09 11:17:00,76.1,72.0,30.03,South,180,5.0,8.0,87,0.00,,,0.43,meteohub,2013-07-09 16:17:00,
2013-07-09 11:22:00,77.0,72.1,30.04,ENE,68,8.0,8.0,85,0.00,,,0.43,meteohub,2013-07-09 16:22:00,
2013-07-09 11:27:00,77.2,71.2,30.04,ENE,68,11.0,11.0,82,0.00,,,0.43,meteohub,2013-07-09 16:27:00,
2013-07-09 11:32:00,77.2,71.2,30.04,East,90,8.0,11.0,82,0.00,,,0.43,meteohub,2013-07-09 16:32:00,
2013-07-09 11:37:00,77.2,71.2,30.03,East,90,8.0,11.0,82,0.00,,,0.43,meteohub,2013-07-09 16:37:00,
2013-07-09 11:42:00,77.9,72.0,30.03,NE,45,8.0,11.0,82,0.00,,,0.43,meteohub,2013-07-09 16:42:00,
2013-07-09 11:47:00,78.1,71.8,30.03,ESE,113,11.0,11.0,81,0.00,,,0.43,meteohub,2013-07-09 16:47:00,
2013-07-09 11:52:00,78.3,71.2,30.04,East,90,10.0,11.0,79,0.00,,,0.43,meteohub,2013-07-09 16:52:00,
2013-07-09 11:57:00,78.6,71.6,30.04,East,90,11.0,14.0,79,0.00,,,0.43,meteohub,2013-07-09 16:57:00,
2013-07-09 12:02:00,78.8,70.2,30.04,SE,135,8.0,14.0,75,0.00,,,0.43,meteohub,2013-07-09 17:02:00,
2013-07-09 12:07:00,78.6,70.3,30.04,SSE,158,6.0,14.0,76,0.00,,,0.43,meteohub,2013-07-09 17:07:00,
2013-07-09 12:12:00,78.6,70.0,30.04,East,90,2.0,11.0,75,0.00,,,0.43,meteohub,2013-07-09 17:12:00,
2013-07-09 12:17:00,78.8,69.1,30.04,SE,135,11.0,14.0,72,0.00,,,0.43,meteohub,2013-07-09 17:17:00,
2013-07-09 12:22:00,79.2,68.5,30.04,SE,135,10.0,14.0,70,0.00,,,0.43,meteohub,2013-07-09 17:22:00,
2013-07-09 12:27:00,79.5,68.5,30.04,SSW,203,7.0,17.0,69,0.00,,,0.43,meteohub,2013-07-09 17:27:00,
2013-07-09 12:32:00,79.7,69.1,30.03,East,90,11.0,17.0,70,0.00,,,0.43,meteohub,2013-07-09 17:32:00,
2013-07-09 12:37:00,80.2,69.1,30.03,ENE,68,8.0,17.0,69,0.00,,,0.43,meteohub,2013-07-09 17:37:00,
2013-07-09 12:42:00,80.2,68.4,30.03,East,90,11.0,14.0,67,0.00,,,0.43,meteohub,2013-07-09 17:42:00,
2013-07-09 12:47:00,80.4,68.5,30.03,SE,135,5.0,16.0,67,0.00,,,0.43,meteohub,2013-07-09 17:47:00,
2013-07-09 12:52:00,80.4,68.5,30.03,East,90,17.0,17.0,67,0.00,,,0.43,meteohub,2013-07-09 17:52:00,
2013-07-09 12:57:00,79.7,67.8,30.03,SE,135,12.0,17.0,67,0.00,,,0.43,meteohub,2013-07-09 17:57:00,
2013-07-09 13:02:00,79.3,67.5,30.03,East,90,11.0,17.0,67,0.00,,,0.43,meteohub,2013-07-09 18:02:00,
2013-07-09 13:07:00,79.3,67.5,30.03,East,90,11.0,17.0,67,0.00,,,0.43,meteohub,2013-07-09 18:07:00,
2013-07-09 13:12:00,79.7,69.1,30.03,SE,135,15.0,17.0,70,0.00,,,0.43,meteohub,2013-07-09 18:12:00,
2013-07-09 13:17:00,80.4,69.3,30.02,ESE,113,12.0,15.0,69,0.00,,,0.43,meteohub,2013-07-09 18:17:00,
2013-07-09 13:22:00,80.4,69.3,30.03,NW,315,11.0,15.0,69,0.00,,,0.43,meteohub,2013-07-09 18:22:00,
2013-07-09 13:27:00,80.2,69.1,30.03,ESE,113,10.0,15.0,69,0.00,,,0.43,meteohub,2013-07-09 18:27:00,
2013-07-09 13:32:00,80.1,69.4,30.02,SE,135,8.0,15.0,70,0.00,,,0.43,meteohub,2013-07-09 18:32:00,
2013-07-09 13:37:00,80.4,69.3,30.03,East,90,9.0,15.0,69,0.00,,,0.43,meteohub,2013-07-09 18:37:00,
2013-07-09 13:42:00,81.0,69.4,30.03,ESE,113,10.0,15.0,68,0.00,,,0.43,meteohub,2013-07-09 18:42:00,
2013-07-09 13:47:00,81.9,69.8,30.03,East,90,12.0,12.0,67,0.00,,,0.43,meteohub,2013-07-09 18:47:00,
2013-07-09 13:52:00,81.9,68.9,30.03,SE,135,17.0,17.0,65,0.00,,,0.43,meteohub,2013-07-09 18:52:00,
2013-07-09 13:57:00,81.5,69.1,30.03,East,90,16.0,17.0,66,0.00,,,0.43,meteohub,2013-07-09 18:57:00,
2013-07-09 14:02:00,81.7,69.3,30.03,East,90,15.0,17.0,66,0.00,,,0.43,meteohub,2013-07-09 19:02:00,
2013-07-09 14:07:00,81.5,68.5,30.03,SE,135,10.0,17.0,65,0.00,,,0.43,meteohub,2013-07-09 19:07:00,
2013-07-09 14:12:00,81.0,68.5,30.03,East,90,11.0,17.0,66,0.00,,,0.43,meteohub,2013-07-09 19:12:00,
2013-07-09 14:17:00,80.4,68.9,30.03,SE,135,12.0,17.0,68,0.00,,,0.43,meteohub,2013-07-09 19:17:00,
2013-07-09 14:22:00,80.4,69.3,30.03,SSE,158,4.0,17.0,69,0.00,,,0.43,meteohub,2013-07-09 19:22:00,
2013-07-09 14:27:00,80.6,69.4,30.03,SE,135,10.0,15.0,69,0.00,,,0.43,meteohub,2013-07-09 19:27:00,
2013-07-09 14:32:00,80.6,69.4,30.03,SE,135,7.0,13.0,69,0.00,,,0.43,meteohub,2013-07-09 19:32:00,
2013-07-09 14:37:00,80.8,69.6,30.03,ENE,68,15.0,15.0,69,0.00,,,0.43,meteohub,2013-07-09 19:37:00,
2013-07-09 14:42:00,81.1,70.0,30.03,South,180,14.0,21.0,69,0.00,,,0.43,meteohub,2013-07-09 19:42:00,
2013-07-09 14:47:00,81.9,70.3,30.03,South,180,13.0,21.0,68,0.00,,,0.43,meteohub,2013-07-09 19:47:00,
2013-07-09 14:52:00,81.9,70.3,30.03,East,90,11.0,16.0,68,0.00,,,0.43,meteohub,2013-07-09 19:52:00,
2013-07-09 14:57:00,82.2,71.1,30.02,ESE,113,10.0,16.0,69,0.00,,,0.43,meteohub,2013-07-09 19:57:00,
2013-07-09 15:03:00,82.6,70.5,30.03,South,180,16.0,16.0,67,0.00,,,0.43,meteohub,2013-07-09 20:03:00,
2013-07-09 15:08:00,82.4,70.0,30.02,South,180,4.0,16.0,66,0.00,,,0.43,meteohub,2013-07-09 20:08:00,
2013-07-09 15:13:00,82.2,70.5,30.03,NE,45,10.0,16.0,68,0.00,,,0.43,meteohub,2013-07-09 20:13:00,
2013-07-09 15:18:00,82.8,71.6,30.02,SE,135,4.0,16.0,69,0.00,,,0.43,meteohub,2013-07-09 20:18:00,
2013-07-09 15:23:00,83.7,71.1,30.02,SE,135,5.0,16.0,66,0.00,,,0.43,meteohub,2013-07-09 20:23:00,
2013-07-09 15:28:00,83.8,70.9,30.02,ENE,68,10.0,11.0,65,0.00,,,0.43,meteohub,2013-07-09 20:28:00,
2013-07-09 15:33:00,83.7,70.7,30.03,SE,135,11.0,17.0,65,0.00,,,0.43,meteohub,2013-07-09 20:33:00,
2013-07-09 15:38:00,84.0,71.1,30.03,SE,135,7.0,17.0,65,0.00,,,0.43,meteohub,2013-07-09 20:38:00,
2013-07-09 15:43:00,84.7,71.6,30.02,East,90,8.0,17.0,65,0.00,,,0.43,meteohub,2013-07-09 20:43:00,
2013-07-09 15:48:00,85.5,72.3,30.02,NE,45,5.0,11.0,65,0.00,,,0.43,meteohub,2013-07-09 20:48:00,
2013-07-09 15:53:00,85.5,71.4,30.03,ESE,113,11.0,11.0,63,0.00,,,0.43,meteohub,2013-07-09 20:53:00,
2013-07-09 15:58:00,85.1,71.1,30.03,East,90,8.0,11.0,63,0.00,,,0.43,meteohub,2013-07-09 20:58:00,
2013-07-09 16:03:00,85.5,70.9,30.02,SE,135,6.0,11.0,62,0.00,,,0.43,meteohub,2013-07-09 21:03:00,
2013-07-09 16:08:00,85.6,72.1,30.02,East,90,7.0,13.0,64,0.00,,,0.43,meteohub,2013-07-09 21:08:00,
2013-07-09 16:13:00,85.8,71.8,30.03,NE,45,6.0,13.0,63,0.00,,,0.43,meteohub,2013-07-09 21:13:00,
2013-07-09 16:18:00,86.4,71.8,30.02,South,180,9.0,13.0,62,0.00,,,0.43,meteohub,2013-07-09 21:18:00,
2013-07-09 16:23:00,86.0,71.1,30.02,SE,135,7.0,11.0,61,0.00,,,0.43,meteohub,2013-07-09 21:23:00,
2013-07-09 16:28:00,85.3,71.2,30.02,East,90,14.0,14.0,63,0.00,,,0.43,meteohub,2013-07-09 21:28:00,
2013-07-09 16:33:00,85.5,71.4,30.02,South,180,8.0,11.0,63,0.00,,,0.43,meteohub,2013-07-09 21:33:00,
2013-07-09 16:38:00,85.6,71.6,30.02,SE,135,4.0,15.0,63,0.00,,,0.43,meteohub,2013-07-09 21:38:00,
2013-07-09 16:43:00,85.5,71.4,30.02,SE,135,2.0,15.0,63,0.00,,,0.43,meteohub,2013-07-09 21:43:00,
2013-07-09 16:48:00,85.3,71.8,30.03,East,90,4.0,14.0,64,0.00,,,0.43,meteohub,2013-07-09 21:48:00,
2013-07-09 16:53:00,85.6,72.1,30.02,North,0,4.0,9.0,64,0.00,,,0.43,meteohub,2013-07-09 21:53:00,
2013-07-09 16:58:00,86.2,71.6,30.02,SE,135,8.0,8.0,62,0.00,,,0.43,meteohub,2013-07-09 21:58:00,
2013-07-09 17:03:00,86.4,71.8,30.02,East,90,6.0,9.0,62,0.00,,,0.43,meteohub,2013-07-09 22:03:00,
2013-07-09 17:09:00,86.0,71.1,30.03,East,90,8.0,9.0,61,0.00,,,0.43,meteohub,2013-07-09 22:09:00,
2013-07-09 17:14:00,85.3,70.7,30.02,East,90,14.0,14.0,62,0.00,,,0.43,meteohub,2013-07-09 22:14:00,
2013-07-09 17:19:00,84.7,70.7,30.02,East,90,7.0,17.0,63,0.00,,,0.43,meteohub,2013-07-09 22:19:00,
2013-07-09 17:24:00,84.9,71.4,30.02,NE,45,8.0,17.0,64,0.00,,,0.43,meteohub,2013-07-09 22:24:00,
2013-07-09 17:29:00,85.5,71.4,30.02,East,90,9.0,17.0,63,0.00,,,0.43,meteohub,2013-07-09 22:29:00,
2013-07-09 17:34:00,85.5,71.4,30.03,South,180,11.0,15.0,63,0.00,,,0.43,meteohub,2013-07-09 22:34:00,
2013-07-09 17:39:00,85.1,70.5,30.03,East,90,13.0,15.0,62,0.00,,,0.43,meteohub,2013-07-09 22:39:00,
2013-07-09 17:44:00,84.9,70.9,30.03,ESE,113,12.0,15.0,63,0.00,,,0.43,meteohub,2013-07-09 22:44:00,
2013-07-09 17:49:00,84.9,70.9,30.03,SE,135,8.0,15.0,63,0.00,,,0.43,meteohub,2013-07-09 22:49:00,
2013-07-09 17:54:00,85.1,71.6,30.03,SW,225,9.0,15.0,64,0.00,,,0.43,meteohub,2013-07-09 22:54:00,
2013-07-09 17:59:00,85.3,71.2,30.03,WNW,293,7.0,15.0,63,0.00,,,0.43,meteohub,2013-07-09 22:59:00,
2013-07-09 18:04:00,85.3,71.2,30.03,SE,135,14.0,14.0,63,0.00,,,0.43,meteohub,2013-07-09 23:04:00,
2013-07-09 18:09:00,85.5,70.9,30.03,SW,225,14.0,14.0,62,0.00,,,0.43,meteohub,2013-07-09 23:09:00,
2013-07-09 18:14:00,85.3,70.7,30.03,South,180,9.0,14.0,62,0.00,,,0.43,meteohub,2013-07-09 23:14:00,
2013-07-09 18:19:00,84.9,70.5,30.03,South,180,11.0,14.0,62,0.00,,,0.43,meteohub,2013-07-09 23:19:00,
2013-07-09 18:24:00,84.6,70.5,30.03,East,90,6.0,14.0,63,0.00,,,0.43,meteohub,2013-07-09 23:24:00,
2013-07-09 18:29:00,84.2,70.7,30.04,East,90,8.0,14.0,64,0.00,,,0.43,meteohub,2013-07-09 23:29:00,
2013-07-09 18:34:00,83.8,70.9,30.04,South,180,6.0,12.0,65,0.00,,,0.43,meteohub,2013-07-09 23:34:00,
2013-07-09 18:39:00,83.7,70.7,30.04,East,90,11.0,13.0,65,0.00,,,0.43,meteohub,2013-07-09 23:39:00,
2013-07-09 18:44:00,83.5,70.9,30.04,East,90,2.0,13.0,66,0.00,,,0.43,meteohub,2013-07-09 23:44:00,
2013-07-09 18:49:00,83.3,70.7,30.04,South,180,12.0,13.0,66,0.00,,,0.43,meteohub,2013-07-09 23:49:00,
2013-07-09 18:54:00,83.3,70.7,30.04,South,180,11.0,11.0,66,0.00,,,0.43,meteohub,2013-07-09 23:54:00,
2013-07-09 18:59:00,83.1,70.5,30.04,NE,45,4.0,14.0,66,0.00,,,0.43,meteohub,2013-07-09 23:59:00,
2013-07-09 19:04:00,83.1,70.5,30.04,East,90,6.0,14.0,66,0.00,,,0.43,meteohub,2013-07-10 00:04:00,
2013-07-09 19:09:00,83.1,70.5,30.04,SE,135,9.0,14.0,66,0.00,,,0.00,meteohub,2013-07-10 00:09:00,
2013-07-09 19:14:00,83.1,70.2,30.04,East,90,5.0,9.0,65,0.00,,,0.00,meteohub,2013-07-10 00:14:00,
2013-07-09 19:20:00,83.1,70.2,30.04,East,90,11.0,11.0,65,0.00,,,0.00,meteohub,2013-07-10 00:20:00,
2013-07-09 19:25:00,83.1,69.6,30.04,SE,135,7.0,10.0,64,0.00,,,0.00,meteohub,2013-07-10 00:25:00,
2013-07-09 19:30:00,82.9,70.0,30.04,South,180,5.0,11.0,65,0.00,,,0.00,meteohub,2013-07-10 00:30:00,
2013-07-09 19:35:00,82.8,69.8,30.04,SE,135,11.0,11.0,65,0.00,,,0.00,meteohub,2013-07-10 00:35:00,
2013-07-09 19:40:00,82.8,69.8,30.04,South,180,6.0,9.0,65,0.00,,,0.00,meteohub,2013-07-10 00:40:00,
2013-07-09 19:45:00,82.8,69.3,30.05,SW,225,8.0,13.0,64,0.00,,,0.00,meteohub,2013-07-10 00:45:00,
2013-07-09 19:50:00,82.8,69.8,30.04,ESE,113,5.0,13.0,65,0.00,,,0.00,meteohub,2013-07-10 00:50:00,
2013-07-09 19:55:00,82.6,69.6,30.04,SW,225,4.0,11.0,65,0.00,,,0.00,meteohub,2013-07-10 00:55:00,
2013-07-09 20:00:00,82.4,69.4,30.05,SE,135,3.0,9.0,65,0.00,,,0.00,meteohub,2013-07-10 01:00:00,
2013-07-09 20:05:00,82.2,69.8,30.04,East,90,6.0,11.0,66,0.00,,,0.00,meteohub,2013-07-10 01:05:00,
2013-07-09 20:10:00,82.0,69.6,30.05,SE,135,8.0,11.0,66,0.00,,,0.00,meteohub,2013-07-10 01:10:00,
2013-07-09 20:15:00,81.9,67.6,30.05,South,180,6.0,11.0,62,0.00,,,0.00,meteohub,2013-07-10 01:15:00,
2013-07-09 20:20:00,81.7,66.9,30.05,SE,135,10.0,12.0,61,0.00,,,0.00,meteohub,2013-07-10 01:20:00,
2013-07-09 20:25:00,81.5,66.7,30.05,North,0,6.0,12.0,61,0.00,,,0.00,meteohub,2013-07-10 01:25:00,
2013-07-09 20:30:00,81.3,66.6,30.05,SE,135,3.0,13.0,61,0.00,,,0.00,meteohub,2013-07-10 01:30:00,
2013-07-09 20:35:00,81.0,66.2,30.06,South,180,7.0,13.0,61,0.00,,,0.00,meteohub,2013-07-10 01:35:00,
2013-07-09 20:40:00,80.8,66.0,30.06,SW,225,2.0,10.0,61,0.00,,,0.00,meteohub,2013-07-10 01:40:00,
2013-07-09 20:45:00,80.4,66.7,30.06,SW,225,9.0,9.0,63,0.00,,,0.00,meteohub,2013-07-10 01:45:00,
2013-07-09 20:50:00,80.2,66.6,30.07,SE,135,4.0,9.0,63,0.00,,,0.00,meteohub,2013-07-10 01:50:00,
2013-07-09 20:55:00,79.9,66.2,30.06,SE,135,4.0,9.0,63,0.00,,,0.00,meteohub,2013-07-10 01:55:00,
2013-07-09 21:00:00,79.9,66.6,30.07,NE,45,4.0,9.0,64,0.00,,,0.00,meteohub,2013-07-10 02:00:00,
2013-07-09 21:05:00,79.9,66.6,30.07,NE,45,4.0,8.0,64,0.00,,,0.00,meteohub,2013-07-10 02:05:00,
2013-07-09 21:10:00,79.5,66.2,30.06,South,180,2.0,8.0,64,0.00,,,0.00,meteohub,2013-07-10 02:10:00,
2013-07-09 21:15:00,79.5,66.7,30.06,East,90,4.0,6.0,65,0.00,,,0.00,meteohub,2013-07-10 02:15:00,
2013-07-09 21:20:00,79.3,66.6,30.06,South,180,6.0,7.0,65,0.00,,,0.00,meteohub,2013-07-10 02:20:00,
2013-07-09 21:25:00,79.3,66.6,30.06,SE,135,3.0,7.0,65,0.00,,,0.00,meteohub,2013-07-10 02:25:00,
2013-07-09 21:31:00,79.2,66.7,30.06,SE,135,3.0,7.0,66,0.00,,,0.00,meteohub,2013-07-10 02:31:00,
2013-07-09 21:36:00,79.0,66.6,30.07,SE,135,2.0,6.0,66,0.00,,,0.00,meteohub,2013-07-10 02:36:00,
2013-07-09 21:41:00,78.8,66.9,30.08,East,90,3.0,4.0,67,0.00,,,0.00,meteohub,2013-07-10 02:41:00,
2013-07-09 21:46:00,78.6,67.6,30.07,SE,135,2.0,4.0,69,0.00,,,0.00,meteohub,2013-07-10 02:46:00,
2013-07-09 21:51:00,78.4,67.5,30.08,South,180,4.0,4.0,69,0.00,,,0.00,meteohub,2013-07-10 02:51:00,
2013-07-09 21:56:00,78.1,67.5,30.08,East,90,2.0,4.0,70,0.00,,,0.00,meteohub,2013-07-10 02:56:00,
2013-07-09 22:01:00,77.9,67.3,30.08,SW,225,2.0,4.0,70,0.00,,,0.00,meteohub,2013-07-10 03:01:00,
2013-07-09 22:06:00,77.7,67.1,30.08,SE,135,4.0,8.0,70,0.00,,,0.00,meteohub,2013-07-10 03:06:00,
2013-07-09 22:11:00,77.7,67.6,30.08,South,180,5.0,8.0,71,0.00,,,0.00,meteohub,2013-07-10 03:11:00,
2013-07-09 22:16:00,77.7,67.1,30.08,SE,135,6.0,8.0,70,0.00,,,0.00,meteohub,2013-07-10 03:16:00,
2013-07-09 22:21:00,77.5,66.9,30.09,North,0,2.0,6.0,70,0.00,,,0.00,meteohub,2013-07-10 03:21:00,
2013-07-09 22:26:00,77.5,66.9,30.09,SE,135,3.0,9.0,70,0.00,,,0.00,meteohub,2013-07-10 03:26:00,
2013-07-09 22:31:00,77.4,66.7,30.09,NE,45,3.0,9.0,70,0.00,,,0.00,meteohub,2013-07-10 03:31:00,
2013-07-09 22:36:00,77.4,66.7,30.09,West,270,3.0,10.0,70,0.00,,,0.00,meteohub,2013-07-10 03:36:00,
2013-07-09 22:41:00,77.2,66.2,30.10,SE,135,5.0,10.0,69,0.00,,,0.00,meteohub,2013-07-10 03:41:00,
2013-07-09 22:46:00,77.0,65.7,30.10,North,0,7.0,10.0,68,0.00,,,0.00,meteohub,2013-07-10 03:46:00,
2013-07-09 22:51:00,77.0,65.7,30.10,NW,315,6.0,8.0,68,0.00,,,0.00,meteohub,2013-07-10 03:51:00,
2013-07-09 22:56:00,76.6,65.7,30.10,SW,225,4.0,8.0,69,0.00,,,0.00,meteohub,2013-07-10 03:56:00,
2013-07-09 23:01:00,76.6,65.7,30.10,East,90,4.0,9.0,69,0.00,,,0.00,meteohub,2013-07-10 04:01:00,
2013-07-09 23:02:00,76.6,65.7,30.10,East,90,4.0,9.0,69,0.00,,,0.00,meteohub,2013-07-10 04:02:00,
2013-07-09 23:04:00,76.3,65.8,30.09,South,180,2.0,9.0,70,0.00,,,0.00,meteohub,2013-07-10 04:04:00,
2013-07-09 23:07:00,76.3,65.8,30.10,SW,225,4.0,9.0,70,0.00,,,0.00,meteohub,2013-07-10 04:07:00,
2013-07-09 23:08:00,76.3,65.8,30.10,ENE,68,8.0,9.0,70,0.00,,,0.00,meteohub,2013-07-10 04:08:00,
2013-07-09 23:13:00,76.1,65.7,30.10,West,270,4.0,9.0,70,0.00,,,0.00,meteohub,2013-07-10 04:13:00,
2013-07-09 23:18:00,75.9,65.5,30.11,SW,225,4.0,8.0,70,0.00,,,0.00,meteohub,2013-07-10 04:18:00,
2013-07-09 23:23:00,75.7,65.7,30.11,SE,135,4.0,8.0,71,0.00,,,0.00,meteohub,2013-07-10 04:23:00,
2013-07-09 23:28:00,75.4,65.3,30.11,SW,225,4.0,7.0,71,0.00,,,0.00,meteohub,2013-07-10 04:28:00,
2013-07-09 23:33:00,75.2,65.1,30.11,SE,135,6.0,6.0,71,0.00,,,0.00,meteohub,2013-07-10 04:33:00,
2013-07-09 23:39:00,75.0,65.8,30.11,West,270,6.0,10.0,73,0.00,,,0.00,meteohub,2013-07-10 04:39:00,
2013-07-09 23:44:00,74.8,65.7,30.12,NW,315,5.0,10.0,73,0.00,,,0.00,meteohub,2013-07-10 04:44:00,
2013-07-09 23:49:00,74.7,65.8,30.12,SW,225,4.0,10.0,74,0.00,,,0.00,meteohub,2013-07-10 04:49:00,
2013-07-09 23:54:00,74.5,65.7,30.12,South,180,12.0,12.0,74,0.00,,,0.00,meteohub,2013-07-10 04:54:00,
2013-07-09 23:59:00,74.3,65.8,30.12,North,0,4.0,12.0,75,0.00,,,0.00,meteohub,2013-07-10 04:59:00,